GMT,Max TemperatureF,Mean TemperatureF,Min TemperatureF,Max Dew PointF,MeanDew PointF,Min DewpointF,Max Humidity, Mean Humidity, Min Humidity, Max Sea Level PressureIn, Mean Sea Level PressureIn, Min Sea Level PressureIn, Max VisibilityMiles, Mean VisibilityMiles, Min VisibilityMiles, Max Wind SpeedMPH, Mean Wind SpeedMPH, Max Gust SpeedMPH,PrecipitationIn, CloudCover, Events, WindDirDegrees
2013-1-1,44,40,35,39,36,32,93,85,76,29.92,29.54,29.30,6,6,6,18,13,,0.00,2,,244
2013-1-2,53,47,41,50,45,37,100,91,87,30.04,29.96,29.92,6,6,4,20,10,32,0.00,6,Rain,245
2013-1-3,53,52,50,50,48,46,94,88,82,30.39,30.23,30.04,6,6,6,21,16,,0.00,4,,249
2013-1-4,51,50,48,48,46,43,94,86,76,30.45,30.43,30.39,6,6,6,17,12,,0.00,6,,250
2013-1-5,51,48,46,48,45,43,94,86,76,30.45,30.35,30.27,6,6,4,22,12,,0.00,4,Rain,236
2013-1-6,51,43,35,46,42,36,100,89,76,30.42,30.30,30.18,6,6,6,15,8,,0.00,3,Fog-Rain,247
2013-1-7,50,48,46,48,47,45,100,92,82,30.18,30.07,30.01,6,6,6,15,8,,0.00,4,Rain,241
2013-1-8,53,47,41,50,45,39,100,90,81,30.15,30.05,29.95,6,6,4,20,8,,0.00,4,Rain,239
2013-1-9,46,42,37,41,38,36,100,90,81,30.15,30.10,30.04,6,6,6,14,9,,0.00,2,,249
2013-1-10,41,36,30,41,37,30,100,99,93,30.04,29.99,29.95,6,3,1,8,4,,0.00,7,Fog,261
2013-1-11,41,37,33,39,37,32,100,94,81,30.01,29.99,29.95,6,6,0,7,2,,0.00,5,Fog-Rain,138
2013-1-12,39,34,28,34,31,28,100,92,75,30.12,30.02,29.95,6,6,5,12,4,,0.00,3,,98
2013-1-13,37,32,28,34,32,28,100,93,81,30.12,30.07,29.98,6,6,2,12,3,,0.00,5,Rain-Snow,244
2013-1-14,39,34,30,36,32,28,100,89,75,29.95,29.80,29.74,6,6,2,10,4,,0.00,3,Rain-Snow,263
2013-1-15,37,30,23,34,30,23,100,94,81,29.92,29.87,29.83,6,6,5,8,3,,0.00,4,Rain-Snow,309
2013-1-16,33,28,23,30,26,21,100,92,81,29.98,29.90,29.83,6,6,6,4,1,,0.00,5,,15
2013-1-17,35,32,30,30,28,23,100,85,65,29.98,29.93,29.80,6,6,5,15,4,24,0.00,3,,74
2013-1-18,35,32,30,30,25,21,100,75,64,29.80,29.66,29.56,6,5,1,22,11,,0.00,2,Snow,101
2013-1-19,37,30,24,32,29,21,93,85,75,29.74,29.67,29.59,6,6,4,14,9,,0.00,3,Snow,94
2013-1-20,35,34,33,28,27,25,81,77,70,29.71,29.62,29.53,6,6,6,14,9,,0.00,6,Rain-Snow,88
2013-1-21,35,34,33,34,31,27,93,88,70,29.53,29.50,29.47,6,5,1,25,15,40,0.00,7,Rain-Snow,80
2013-1-22,35,34,32,34,32,30,100,90,81,29.83,29.67,29.53,6,6,2,17,11,,0.00,4,Rain-Snow,85
2013-1-23,37,34,32,34,31,30,93,90,81,29.95,29.87,29.83,6,6,6,8,5,,0.00,2,,69
2013-1-24,37,34,32,34,30,27,100,84,70,30.06,30.02,29.95,6,6,6,12,3,,0.00,4,,195
2013-1-25,39,36,33,34,31,27,100,81,65,29.95,29.66,29.39,6,6,4,15,7,,0.00,6,Rain-Snow,194
2013-1-26,46,40,33,43,35,32,93,85,75,29.56,29.39,28.97,6,6,6,26,11,39,0.00,3,Rain,227
2013-1-27,50,44,37,45,38,34,93,84,76,29.21,28.95,28.77,6,6,6,28,21,38,0.00,3,Rain,233
2013-1-28,46,42,37,43,37,34,93,84,70,29.33,29.12,28.88,6,6,4,31,22,44,0.00,4,Rain,224
2013-1-29,53,48,42,50,41,36,88,81,71,29.33,29.14,28.94,6,6,3,32,20,45,0.00,4,Rain,228
2013-1-30,44,42,39,39,37,34,93,79,66,29.65,29.29,29.12,6,6,5,26,22,44,0.00,3,Rain,246
2013-1-31,46,42,37,39,37,36,93,84,71,29.65,29.41,29.21,6,6,3,25,14,43,0.00,5,Rain,237